Location: Eaton
(41.3139°N, 82.0207°W)
Time: 12:05:13
(UTC+00:00)

SL-16 R/B - Pass Details

Date: 17 June 2021
Orbit: 985 x 1007 km, 99.5° (Epoch: 31 July)

Event Time Altitude Azimuth Distance (km) Brightness Sun altitude
Exits shadow 08:11:26 22° 219° (SW) 2,031 3.5 -15.2°
Maximum altitude 08:14:25 32° 264° (W) 1,626 3.3 -14.8°
Drops below altitude 10° 08:19:54 10° 326° (NW) 2,760 5.1 -14.2°
Sets 08:22:40 0° 336° (NNW) 3,710 5.9 -13.8°
